SCP
0 0 0 0 0 0 0 0 0 0 0 0 0 0 0 0 0 0 0 0 0 0 0 0 0 0 0 0 0 0 0 0 0 0 0 0 0 0 0 0 0 0 0 0
0 0 0 0 0 0 0 0 0 0 0 0 0 0 0 0 0 0 0 0 0 0 0 0 0 0 0 0 0 0 0 0 0 0 0 0 0 0 0 0 0 0 0 0
0 0 0 0 0 0 0 0 0 0 0 0 0 0 0 0 0 0 0 0 0 0 0 0 0 0 0 0 0 0 0 0 0 0 0 0 0 0 0 0 0 0 0 0
0 0 0 0 -0 0 0 0 0 0 0 0 0 0 0 0 0 0 0 0 0 0 0 0 0 0 0 0 0 0 0 0 0 0 0 0 0 0 0 0 0 0 0 0
0 0 0 0 -0 0 0 0 0 0 0 0 0 0 0 0 0 0 0 0 0 0 0 0 0 0 0 0 0 0 0 0 0 0 0 0 0 0 0 0 0 0 0 0
0 0 0 -0 -0 0 0 0 0 0 0 0 0 0 0 0 0 0 0 0 0 0 0 0 0 0 0 0 0 0 0 0 0 0 0 0 0 0 0 0 0 0 0 0
0 0 -0 -0 -0 0 0 0 0 0 0 0 0 0 0 0 0 0 0 0 0 0 0 0 0 0 0 0 0 0 0 0 0 0 0 0 0 0 0 0 0 0 0 0
0 -0 -0 -0 -0 0 0 0 0 0 0 0 0 0 0 0 0 0 0 0 0 0 0 0 0 0 0 0 0 0 0 0 0 0 -0 -0 -0 0 0 0 0 0 0 0
0 -0 -0 -0 -0 0 0 0 0 0 0 0 0 0 0 0 0 0 0 0 0 0 0 0 0 0 0 0 0 0 0 0 0 -0 -0 -0 -0 -0 0 0 0 0 0 0
-0 -0 -0 -0 -0 0 0 0 0 0 0 0 0 0 0 0 0 0 0 0 0 0 0 0 0 0 0 0 0 0 0 0 -0 -0 -0 -0 -0 -0 0 0 0 0 0 0
0 0 0 0 0 0 0 0 0 0 0 0 0 0 0 0 0 0 0 0 0 0 0 0 0 0 0 0 0 0 0 0 -0 -0 -0 -0 -0 -0 0 0 0 0 0 0
0 0 0 0 0 0 0 0 0 0 0 0 0 0 0 0 0 0 0 0 0 0 0 0 0 0 0 0 0 0 0 0 0 -0 -0 0 0 0 0 0 0 0 0 0
0 0 0 0 0 0 0 0 0 0 0 0 0 0 0 0 0 0 0 0 0 0 0 0 0 0 0 0 0 0 0 0 0 0 0 0 0 0 0 0 0 0 0 0
0 0 0 0 0 0 0 0 0 0 0 0 0 0 0 0 0 0 0 0 0 0 0 0 0 0 0 0 0 0 0 0 0 0 0 0 0 0 0 0 0 0 0 0
0 0 0 0 0 0 0 0 0 0 0 0 0 0 0 0 0 0 0 0 0 0 0 0 0 0 0 0 0 0 0 0 0 0 0 0 0 0 0 0 0 0 0 0
0 0 0 0 0 0 0 0 0 0 0 0 0 0 0 0 0 0 0 0 0 0 0 0 0 0 0 0 0 0 0 0 0 0 0 0 0 0 0 0 0 0 0 0
0 0 0 0 0 0 0 0 0 0 0 0 0 0 0 0 0 0 0 0 0 0 0 0 0 0 0 0 0 0 0 0 0 0 0 0 0 0 0 0 0 0 0 0
0 0 0 0 0 0 0 0 0 0 0 0 0 0 0 0 0 0 0 0 0 0 0 0 0 0 0 0 0 0 0 0 0 0 0 0 0 0 0 0 0 0 0 0
0 0 0 0 0 0 0 0 0 0 0 0 0 0 0 0 0 0 0 0 0 0 0 0 0 0 0 0 0 0 0 0 0 0 0 0 0 0 0 0 0 0 0 0
0 0 0 0 0 0 0 0 0 0 0 0 0 0 0 0 0 0 0 0 0 0 0 0 0 0 0 0 0 0 0 0 0 0 0 0 0 0 0 0 0 0 0 0
0 0 0 0 0 0 0 0 0 0 0 0 0 0 0 0 0 0 0 0 0 0 0 0 0 0 0 0 0 0 0 0 0 0 0 0 0 0 0 0 0 0 0 0
0 0 0 0 0 0 0 0 0 0 0 0 0 0 0 0 0 0 0 0 0 0 0 0 0 0 0 0 0 0 0 0 0 0 0 0 0 0 0 0 0 0 0 0
0 0 0 0 0 0 0 0 0 0 0 0 0 0 0 0 0 0 0 0 0 0 0 0 0 0 0 0 0 0 0 0 0 0 0 0 0 0 0 0 0 0 0 0
0 0 0 0 0 0 0 0 0 0 0 0 0 0 0 0 0 0 0 0 0 0 0 0 0 0 0 0 0 0 0 0 0 0 0 0 0 0 0 0 0 0 0 0
0 0 0 0 0 0 0 0 0 0 0 0 0 0 0 0 0 0 0 0 0 0 0 0 0 0 0 0 0 0 0 0 0 0 0 0 0 0 0 0 0 0 0 0
0 0 0 0 0 0 0 0 0 0 0 0 0 0 0 0 0 0 0 0 0 0 0 0 0 0 0 0 0 0 0 0 0 0 0 0 0 0 0 0 0 0 0 0
0 0 0 0 0 0 0 0 0 0 0 0 0 0 0 0 0 0 0 0 0 0 0 0 0 0 0 0 0 0 0 0 0 0 0 0 0 0 0 0 0 0 0 0
Wind_Speed
6 6 4 5 6 6 5 7 6 6 5 7 7 9 8 8 8 8 8 8 9 9 9 8 7 7 7 6 6 7 6 6 7 6 5 5 4 4 4 4 4 4 4 3
3 5 4 4 6 7 6 5 5 4 5 6 4 4 5 7 9 9 9 10 10 9 9 9 8 8 7 7 6 6 7 7 6 6 6 6 5 5 4 4 3 3 4 4
3 4 1 4 7 7 5 5 6 7 8 4 4 6 8 9 9 10 10 9 10 10 10 10 9 9 9 8 6 6 7 6 6 6 6 6 6 5 5 4 4 4 3 3
1 2 2 8 5 5 5 3 4 4 5 6 7 7 6 7 9 9 9 9 9 9 9 8 7 7 6 6 7 7 6 6 6 6 6 5 5 5 5 4 4 4 3 3
3 2 4 7 4 3 5 2 2 4 4 4 4 5 2 2 6 9 9 9 8 8 8 8 8 7 7 6 6 7 7 7 7 7 6 6 6 6 5 4 4 3 3 4
4 3 5 7 5 1 6 1 4 3 5 5 6 4 4 4 4 4 5 5 6 6 6 7 7 7 8 7 7 8 8 7 7 7 7 7 7 6 4 4 4 4 3 3
5 4 7 8 4 3 4 6 3 3 5 6 5 6 5 4 4 4 4 4 5 6 7 7 7 8 8 8 9 9 6 6 6 6 6 6 5 4 4 4 4 3 3 3
5 4 8 5 3 5 7 4 2 3 4 5 4 3 3 4 4 4 4 4 5 6 6 5 7 9 8 9 7 5 6 6 6 5 5 5 5 4 4 5 4 4 3 3
8 8 6 2 4 4 5 4 3 3 3 4 4 3 3 3 3 3 4 4 4 5 5 4 6 8 9 7 5 6 6 6 5 5 4 5 5 5 4 4 4 4 3 4
1 3 2 1 2 2 4 4 4 4 4 4 4 4 3 3 3 3 3 4 4 5 5 4 5 6 6 6 6 7 6 6 5 5 4 4 4 4 4 4 4 4 4 4
1 2 1 2 0 2 2 3 4 3 3 4 4 3 4 4 3 3 3 3 4 5 5 5 4 4 4 5 7 7 6 5 5 5 5 4 4 4 5 6 7 7 6 5
6 7 5 4 3 3 5 3 4 4 3 2 4 4 4 3 3 3 3 3 3 3 4 4 4 4 4 5 7 7 5 5 4 4 3 3 3 2 4 5 7 9 9 7
5 4 5 4 2 2 4 3 3 4 4 2 2 3 3 3 2 3 3 3 4 4 4 4 4 3 4 4 6 6 6 5 4 4 4 4 4 4 3 3 4 6 8 9
3 4 3 2 2 2 3 3 4 3 3 2 2 2 3 2 2 3 3 3 3 3 3 3 3 3 3 4 5 5 4 5 5 4 4 4 4 4 4 4 3 4 5 8
2 3 4 3 3 2 3 3 4 3 2 2 2 3 3 3 3 3 2 2 3 3 3 3 3 2 2 3 4 4 3 3 3 3 3 4 4 4 3 4 4 4 3 4
3 3 4 4 3 3 3 4 4 2 2 2 2 1 2 3 2 1 1 3 4 3 3 3 3 3 3 4 3 3 3 4 3 2 2 3 3 3 4 4 4 4 4 4
6 4 4 4 3 2 2 2 3 3 2 2 1 1 2 2 2 1 1 1 3 3 3 4 3 2 3 4 4 2 2 2 3 2 2 3 3 4 4 4 4 4 5 5
6 6 6 6 5 4 2 2 2 2 2 2 2 2 2 2 2 2 1 1 2 1 1 2 2 2 3 3 3 2 2 2 2 2 2 2 3 3 3 4 5 5 4 4
5 6 5 5 4 4 3 2 2 1 1 2 3 2 1 1 2 2 2 2 2 0 2 1 2 3 2 2 2 2 2 1 1 1 2 3 2 2 3 3 4 4 4 3
5 5 5 4 4 4 3 2 2 2 2 2 3 3 2 1 1 2 3 2 1 2 1 1 2 2 1 2 2 2 2 1 1 1 1 2 2 3 3 3 3 3 3 3
5 5 5 4 3 3 3 3 3 3 2 3 3 3 2 1 2 2 3 1 2 1 1 1 1 1 1 1 2 1 1 1 1 1 1 2 2 2 3 3 3 3 3 3
4 5 5 4 4 3 2 2 3 3 3 3 3 3 3 2 2 2 1 1 1 1 1 1 1 1 1 2 1 1 1 0 0 0 1 1 2 2 2 3 3 3 3 3
4 4 5 4 4 3 3 3 3 3 3 3 2 2 2 1 1 2 1 2 1 0 0 1 1 1 2 2 1 1 1 0 0 1 1 1 2 2 2 3 3 2 2 2
4 4 4 4 5 5 3 2 2 2 2 2 2 2 2 2 1 1 1 1 1 1 0 1 1 1 2 1 1 1 1 1 1 1 1 1 2 2 2 2 2 2 2 3
4 4 4 5 4 3 2 2 3 3 3 2 2 1 1 1 1 1 0 0 1 2 1 1 1 0 1 1 1 1 1 1 1 1 1 1 2 2 2 2 2 3 3 3
3 3 2 3 3 3 2 2 2 1 1 1 1 1 1 1 0 0 0 0 0 1 1 1 1 0 0 1 1 1 1 1 1 1 1 2 2 2 2 3 4 3 3 4
3 2 2 2 1 2 2 2 2 1 1 2 1 1 0 0 0 0 0 1 1 1 1 1 1 1 1 1 1 1 1 1 1 1 1 2 2 2 3 4 3 3 3 4
Wind_Direction
231 239 207 218 224 213 196 192 194 229 222 237 211 190 187 180 174 168 176 181 183 184 187 187 187 189 191 192 187 179 174 179 186 185 179 169 166 167 163 157 158 159 152 150
288 272 240 238 236 222 220 216 213 215 247 240 211 168 169 173 170 177 187 191 190 187 185 188 190 191 189 189 187 175 178 187 179 173 170 170 173 166 162 163 157 149 154 152
270 296 40 273 236 216 214 214 190 205 228 205 159 178 186 184 180 187 191 190 187 190 192 193 193 188 190 190 176 172 179 181 176 172 171 176 175 165 170 169 156 155 163 156
196 39 231 249 246 200 189 231 207 196 199 183 182 186 181 177 179 188 188 186 189 190 193 194 189 185 179 170 169 175 180 181 180 175 178 175 167 170 174 163 161 166 171 171
138 182 274 291 285 188 163 264 268 185 182 166 139 90 21 212 184 189 189 188 190 189 186 184 182 178 164 165 169 174 185 191 188 180 177 175 178 182 176 163 168 174 175 175
137 164 228 250 269 218 109 320 299 170 157 148 117 119 241 226 189 190 187 185 182 175 166 173 183 169 165 174 177 190 195 194 187 180 179 184 189 185 174 170 183 180 184 191
162 198 253 253 268 96 134 222 256 156 146 148 160 188 202 176 172 178 176 178 169 163 173 186 176 166 174 180 196 200 187 177 174 178 183 185 182 176 171 173 174 181 193 208
155 181 248 260 133 159 199 199 178 146 143 145 158 152 145 154 164 160 161 161 160 166 181 181 170 169 179 197 201 177 165 169 177 180 182 175 165 171 170 169 175 192 200 225
182 205 234 236 180 185 158 150 156 147 149 138 133 144 152 154 158 159 159 164 165 168 172 177 178 177 187 199 174 162 164 176 180 178 181 169 168 173 171 173 183 201 203 221
171 251 238 164 127 130 149 148 150 144 140 132 139 151 151 153 156 158 159 160 154 150 161 184 192 189 189 178 164 161 169 179 178 177 180 176 175 178 179 187 195 203 209 221
173 236 67 355 122 148 116 109 111 111 122 138 134 145 158 162 169 171 167 163 155 162 175 189 184 184 177 166 162 166 173 177 179 182 181 185 191 197 196 205 201 200 211 211
203 207 178 216 226 149 126 125 129 120 101 114 139 154 158 170 176 168 165 159 155 162 170 179 174 178 178 171 167 167 174 179 181 180 181 182 186 226 243 228 226 219 216 213
194 188 175 180 172 142 136 136 126 126 134 134 135 142 148 159 168 156 155 162 173 180 176 169 166 178 185 174 169 172 180 184 182 181 182 185 187 194 230 271 259 241 233 229
155 128 128 152 167 155 132 121 106 95 100 119 126 119 123 125 137 153 179 191 179 164 161 161 162 186 190 170 165 171 176 186 185 188 189 192 197 202 204 213 239 259 253 243
161 147 159 158 137 126 115 103 95 84 78 73 92 109 125 134 163 192 192 151 129 136 157 161 169 202 181 163 165 172 175 186 189 190 193 199 202 204 209 217 228 242 257 265
150 116 120 121 124 118 107 110 117 125 117 107 100 117 147 152 161 162 150 141 143 169 189 183 197 207 175 164 164 174 192 209 198 192 196 202 204 208 217 224 232 238 241 243
144 150 147 144 139 130 132 146 155 160 144 137 159 154 111 99 94 97 144 169 174 190 192 192 207 197 172 169 168 178 184 204 210 205 207 212 214 220 222 223 230 236 242 237
165 167 164 160 154 145 135 132 142 148 157 171 134 105 108 128 159 184 186 128 98 64 288 233 192 156 162 170 171 174 179 193 202 208 216 223 230 230 228 228 231 235 245 245
136 134 133 134 140 139 137 144 155 158 145 123 114 118 134 153 156 141 113 103 111 178 281 245 124 130 157 177 166 163 173 191 216 228 220 228 236 239 238 239 239 239 238 241
123 124 120 113 111 120 122 119 112 100 97 109 107 99 82 73 105 105 98 102 209 231 229 131 114 128 154 166 141 147 156 173 202 233 239 235 235 243 245 243 243 245 245 242
125 120 114 108 97 94 108 116 114 110 101 103 112 120 114 84 85 100 103 68 315 325 107 101 115 143 135 111 96 111 132 168 207 238 248 249 253 257 255 250 250 249 247 246
125 119 116 112 104 91 83 97 109 107 97 93 97 103 98 85 73 67 74 205 250 346 65 134 147 132 96 82 97 103 111 134 260 290 275 269 265 266 267 263 258 258 254 250
121 120 118 118 120 115 86 83 98 107 108 112 116 119 124 142 145 133 293 294 278 342 85 181 186 126 100 100 120 126 126 136 278 281 278 271 267 265 266 267 265 263 265 266
113 114 117 116 109 102 96 85 89 99 105 104 108 119 120 101 23 325 246 286 347 354 351 217 174 127 94 115 146 164 195 229 254 273 283 282 277 274 272 272 276 277 273 274
108 108 111 111 111 124 140 117 89 80 77 67 53 51 65 126 166 260 306 313 348 12 358 297 286 63 94 154 181 208 227 236 244 254 257 267 273 273 270 265 264 271 275 274
111 116 124 133 142 144 137 121 112 108 102 79 25 9 26 34 86 96 73 11 357 355 352 317 287 313 194 200 217 233 240 258 287 285 269 274 278 278 275 272 272 269 270 272
98 102 103 92 91 127 135 135 138 155 165 161 196 264 247 185 94 54 26 359 338 324 320 320 310 282 253 242 250 254 255 269 268 268 278 280 277 274 274 274 272 271 271 273